Temp
12 11 11 11 11 12 12 12 12 12 12 12 12 12 12 12 12 10 8 8 8 9 9 10 10 10 10 10 10 10 10 10 10 10 9 9 9 9 9 10 10 10 10
13 13 13 12 11 12 13 13 12 11 12 11 10 10 10 10 10 10 8 6 6 7 7 8 8 9 9 9 9 9 9 9 9 9 9 9 9 9 9 9 9 9 10
14 14 12 11 11 12 12 11 11 10 11 10 9 9 9 8 8 8 9 8 6 5 6 6 7 7 8 9 9 9 9 8 8 8 8 8 8 8 8 8 8 9 9
13 12 11 11 11 11 11 11 11 11 10 10 9 9 8 8 7 7 7 7 7 6 4 5 5 6 6 7 8 8 8 8 8 7 7 7 7 7 8 8 8 8 8
10 11 10 11 10 10 11 10 11 11 10 9 8 8 8 8 7 6 6 5 5 6 5 3 3 4 4 5 6 7 7 7 7 7 6 6 6 7 7 7 7 8 8
10 11 11 10 10 10 10 10 10 10 9 9 8 7 6 6 6 6 5 5 5 5 5 6 5 2 3 3 4 5 6 6 6 6 5 5 6 6 6 6 6 7 7
10 10 10 9 10 10 10 10 9 9 8 7 7 6 5 6 6 6 6 6 5 5 4 5 5 4 3 2 2 3 4 5 5 5 5 5 5 5 5 5 6 6 6
9 9 9 9 9 10 9 8 8 8 8 8 11 9 9 7 6 6 6 5 5 4 3 3 2 3 2 2 1 1 2 3 3 4 4 4 4 4 4 5 5 5 5
8 9 9 9 9 9 8 9 9 9 9 8 10 13 13 14 7 5 5 5 4 5 4 3 2 1 1 2 2 0 -0 1 2 3 3 3 3 3 4 4 4 4 4
8 8 8 8 8 9 9 9 8 9 9 9 9 8 10 9 12 6 4 4 4 4 3 4 3 3 1 2 1 -1 -1 -0 1 1 2 2 2 3 3 3 3 4 4
7 7 8 8 8 9 9 9 8 9 9 10 10 9 9 10 10 10 6 5 5 4 3 3 3 3 2 2 1 -1 -2 -1 -0 0 1 1 1 2 2 2 2 2 2
6 6 7 8 8 8 8 8 8 8 9 9 10 9 10 11 10 11 10 6 6 4 3 3 2 2 2 1 -1 -2 -2 -2 -2 -1 -0 -0 -0 0 1 1 1 1 2
6 6 6 7 7 7 7 7 7 7 8 8 8 9 9 10 11 11 10 8 6 3 3 2 2 2 1 -0 -1 -1 -3 -3 -3 -2 -2 -1 -1 -1 -1 -0 -0 -0 -0
6 5 5 6 6 6 6 6 7 7 7 7 7 8 8 8 8 9 10 8 8 5 4 4 2 1 0 -1 -2 -1 -2 -3 -3 -3 -3 -2 -2 -2 -2 -2 -1 -2 -2
6 5 5 4 4 5 5 5 6 6 6 6 6 6 7 6 7 8 9 8 10 9 8 3 3 0 0 -1 -2 -0 -1 -4 -4 -4 -4 -3 -3 -3 -3 -3 -2 -3 -3
4 4 3 4 4 4 4 5 5 5 5 5 5 5 5 6 6 6 7 7 8 10 7 4 2 0 -0 -0 -2 -1 -2 -3 -5 -5 -5 -5 -4 -4 -4 -4 -4 -4 -4
3 3 3 3 3 3 3 4 4 4 4 4 5 5 5 5 5 6 5 6 6 7 5 2 1 -1 -1 -1 -1 -1 -2 -1 -4 -6 -5 -5 -5 -5 -5 -5 -5 -5 -5
4 3 2 2 2 2 3 3 3 3 4 4 4 4 4 4 5 5 6 5 5 5 4 2 0 -1 -1 -2 -1 -1 -2 -2 -2 -6 -6 -6 -6 -6 -6 -6 -6 -6 -5
1 2 2 1 2 2 1 2 2 2 2 2 1 2 2 3 3 4 4 4 4 4 2 1 -1 -1 -2 -2 -2 -2 -2 -2 -3 -6 -6 -7 -7 -7 -6 -7 -7 -7 -6
2 0 1 1 1 0 0 0 0 0 -1 0 0 0 0 0 0 -0 0 1 2 2 1 -0 -2 -4 -4 -5 -4 -2 -2 -3 -3 -4 -5 -6 -6 -7 -7 -7 -7 -7 -7
-0 0 0 1 1 1 1 -1 -1 -0 -1 -2 -2 -1 -1 -1 -1 -1 -1 -2 -1 -0 -0 -1 -2 -3 -4 -4 -4 -6 -4 -4 -6 -6 -4 -5 -5 -5 -6 -6 -7 -8 -8
-1 -1 -0 -1 -0 0 -1 -1 -0 -1 -1 -1 -2 -2 -3 -1 -1 -2 -2 -2 -1 -0 -0 -0 -1 -3 -6 -6 -6 -5 -4 -3 -2 -6 -6 -5 -6 -6 -7 -8 -9 -9 -9
1 1 1 0 0 -1 -1 -0 -1 -0 -0 -0 -0 -1 -1 -3 -3 -4 -3 -3 -3 -3 -2 -1 -3 -3 -5 -6 -4 -5 -5 -3 -3 -5 -5 -4 -5 -6 -7 -8 -9 -9 -10
1 1 1 1 0 -2 -2 -1 -1 -0 -0 -0 -0 -0 -1 -2 -2 -3 -2 -3 -3 -4 -4 -3 -3 -4 -5 -5 -5 -4 -3 -3 -4 -5 -5 -2 -5 -5 -6 -6 -8 -9 -10
1 -0 -1 -1 -2 -4 -2 -2 -2 -2 -2 -2 -2 -2 -1 -2 -4 -3 -2 -3 -4 -6 -7 -6 -7 -7 -7 -7 -7 -5 -3 -2 -2 -4 -7 -6 -5 -6 -6 -6 -6 -8 -9
0 -1 -1 -1 -2 -3 -5 -4 -3 -2 -3 -3 -3 -3 -3 -3 -5 -4 -3 -3 -4 -6 -8 -8 -9 -9 -9 -8 -8 -9 -7 -4 -4 -4 -9 -7 -6 -7 -5 -6 -6 -7 -7
Height
810 813 817 819 820 822 822 825 828 831 834 834 837 838 840 842 844 846 848 847 848 848 848 847 846 847 847 846 845 843 842 841 840 839 838 837 835 833 831 829 828 826 823
806 809 813 815 819 822 826 828 830 831 832 835 837 841 843 844 846 848 849 849 849 849 850 850 850 851 850 849 846 845 844 844 842 841 839 838 836 835 833 831 829 826 824
802 805 808 812 818 824 825 831 831 830 832 837 837 843 844 846 847 849 850 852 852 852 852 852 853 853 852 851 849 848 847 846 844 843 842 840 838 836 834 833 830 827 825
797 801 805 810 815 820 824 829 831 833 835 838 840 845 845 848 848 849 851 853 855 855 854 854 855 855 853 852 850 850 849 848 847 845 843 842 840 838 836 834 831 829 826
796 798 802 807 810 814 822 826 829 832 835 839 844 848 847 850 849 851 853 854 855 855 857 857 857 857 855 853 852 852 851 850 849 847 845 843 842 840 838 835 832 830 827
795 800 802 803 807 809 816 825 829 831 833 837 844 844 850 851 851 853 854 855 855 856 857 859 859 860 856 855 855 855 854 852 851 849 847 846 844 841 839 837 835 832 829
792 797 801 803 807 810 812 818 826 831 835 835 841 845 850 851 852 853 854 855 856 858 858 860 861 860 859 858 858 857 856 855 853 851 849 847 845 843 841 839 837 834 831
788 792 797 802 805 808 810 812 817 828 833 831 833 839 846 853 853 854 854 855 856 858 860 861 861 861 861 862 861 860 858 857 855 853 851 849 847 846 844 841 838 836 832
784 788 792 798 802 805 811 812 814 821 823 828 831 830 831 828 849 855 855 856 858 858 860 861 862 862 863 864 864 862 860 858 857 855 854 852 850 848 845 843 841 838 834
779 783 788 794 797 803 807 812 816 820 822 824 829 831 829 830 833 850 857 857 859 859 860 861 862 864 864 865 865 864 862 860 859 857 855 854 852 850 848 846 843 840 837
776 779 783 788 794 799 804 809 813 816 819 822 824 827 829 831 832 836 848 856 858 860 861 862 862 864 865 866 866 864 862 861 860 859 858 856 854 852 850 848 845 842 839
772 777 779 785 788 795 799 805 809 812 815 819 822 825 825 827 830 832 839 849 853 859 861 862 863 864 865 865 864 864 863 862 861 861 859 857 855 854 852 849 846 844 842
767 772 776 780 787 791 795 800 804 807 811 816 819 822 824 826 827 831 835 843 850 860 862 863 863 862 863 864 863 864 863 863 862 862 861 860 859 856 855 853 850 847 844
762 768 774 774 783 787 791 795 800 804 809 812 815 820 823 826 828 830 832 837 845 850 856 859 862 862 863 864 863 863 864 865 864 864 864 863 862 859 856 854 851 848 845
757 764 768 771 782 782 788 792 796 800 805 809 812 815 820 823 826 830 832 835 836 839 846 855 857 859 861 863 863 865 866 866 866 866 865 865 862 859 856 854 853 850 847
753 759 764 767 780 789 788 788 794 798 801 807 809 815 818 822 825 827 832 835 836 833 843 853 856 858 858 861 863 866 867 867 866 867 866 865 862 860 857 856 854 852 850
748 758 762 762 775 788 789 789 791 795 800 806 808 812 817 822 824 826 830 832 835 836 842 852 856 858 859 861 864 867 868 868 867 867 866 864 862 861 859 858 856 855 852
744 752 760 765 777 784 787 788 790 794 799 804 808 813 818 822 825 828 830 831 833 836 839 851 856 858 860 861 864 867 867 867 868 866 865 864 863 861 860 859 858 856 853
749 751 756 769 776 778 782 789 791 794 801 803 806 812 818 821 826 827 829 832 836 840 844 848 854 858 861 862 864 866 866 866 868 866 864 864 862 861 861 860 858 855 854
748 756 758 770 771 775 782 785 790 792 798 803 809 812 815 819 822 827 832 833 836 840 843 850 854 858 860 861 863 864 865 867 869 867 865 864 862 861 862 860 858 856 854
748 754 760 766 769 776 781 787 789 793 800 807 812 814 815 819 825 828 831 834 837 841 847 851 853 858 859 861 862 863 865 867 868 867 865 864 864 863 863 861 859 857 854
746 756 760 764 770 776 782 786 791 797 805 810 811 816 819 822 824 827 832 837 838 842 848 849 852 857 860 860 861 862 864 866 865 866 865 864 862 862 861 860 859 857 856
746 753 757 763 770 777 780 786 792 800 808 810 813 817 824 829 828 829 833 838 838 843 848 851 854 857 859 860 861 860 863 864 865 866 864 862 862 861 860 859 857 857 855
743 748 757 764 768 775 781 786 794 802 804 809 815 820 825 829 833 831 836 840 844 847 851 853 855 858 858 859 860 860 861 863 865 866 864 858 860 860 859 858 856 855 854
741 749 756 763 769 774 782 786 792 801 806 811 816 821 826 830 834 833 838 843 845 849 851 851 853 856 856 856 856 860 860 860 861 864 864 861 860 859 857 857 857 854 853
741 749 755 763 767 772 781 786 794 799 805 810 817 822 827 829 834 835 839 843 845 851 853 854 855 856 856 856 856 857 860 860 861 861 863 863 860 859 855 855 856 855 853
Wind_Speed
15 14 13 11 10 10 12 12 15 16 15 16 15 16 16 15 15 13 15 20 19 18 18 18 19 17 16 15 16 15 14 15 16 16 16 17 18 17 18 18 16 16 16
20 17 16 14 13 11 12 14 16 17 17 16 17 16 15 15 14 14 14 17 21 20 19 18 17 16 15 18 18 19 18 17 17 17 17 16 18 18 17 16 16 17 16
22 20 19 17 14 14 14 14 15 16 17 15 18 16 16 15 14 13 12 11 15 20 20 20 17 18 18 17 18 18 18 19 19 19 18 19 18 18 18 18 18 18 18
23 22 22 18 17 16 16 15 15 16 17 16 16 14 15 14 14 13 11 10 9 10 18 18 19 17 18 18 18 17 17 17 17 17 18 18 19 19 19 19 19 18 19
21 23 20 18 19 18 17 18 17 18 18 16 15 13 14 12 13 13 12 11 11 10 9 15 18 20 18 19 19 18 17 17 18 18 18 17 17 18 19 19 20 20 19
20 18 17 19 20 21 21 18 18 18 20 20 17 17 13 12 12 11 11 11 11 11 9 8 7 14 21 20 20 19 18 18 18 17 17 17 18 18 19 19 19 20 20
20 19 17 18 19 19 21 22 20 21 21 23 22 18 14 12 11 10 9 10 11 11 11 10 8 9 12 18 19 19 19 19 18 18 18 19 19 19 20 20 20 21 20
21 20 19 20 19 20 24 26 27 23 21 23 10 13 6 7 9 8 9 10 10 9 10 10 11 11 10 11 16 18 18 18 19 19 19 19 20 20 20 20 21 21 21
21 21 20 20 20 20 20 24 25 24 19 19 17 3 4 3 12 5 7 8 8 9 9 9 10 10 10 11 11 14 18 18 17 18 18 19 20 20 21 21 21 22 22
24 21 22 19 20 18 20 21 22 20 15 18 16 6 2 13 4 5 4 6 7 8 8 8 9 8 8 9 11 14 14 17 18 18 18 18 19 20 20 21 21 22 23
22 22 25 22 21 20 20 21 22 20 18 16 14 12 8 5 7 6 6 10 9 7 7 7 7 8 8 8 9 12 14 17 17 17 18 19 19 20 20 21 22 21 23
22 22 23 21 21 21 22 22 21 18 16 14 13 13 10 6 9 6 9 16 12 9 7 7 7 7 7 8 9 12 14 15 16 17 18 19 19 20 20 20 21 21 22
24 24 24 22 20 20 20 19 19 17 16 15 14 11 9 8 8 9 14 17 11 8 6 6 6 7 7 8 9 11 13 14 15 15 16 17 17 18 18 19 20 21 21
27 24 21 23 21 19 18 17 17 16 16 15 13 11 10 9 9 11 13 16 10 10 13 10 6 6 6 7 11 11 10 12 12 13 14 14 15 17 18 19 20 22 22
27 27 23 23 19 23 20 19 17 17 16 14 13 12 11 10 10 11 12 17 11 8 8 10 7 7 7 6 8 7 7 6 10 10 12 13 15 17 18 19 19 21 22
28 27 27 24 18 17 20 20 19 17 17 15 14 14 12 11 12 12 13 10 5 6 5 12 8 9 9 7 8 7 6 7 8 7 9 11 14 16 18 18 19 19 20
32 24 26 27 21 19 18 18 18 19 17 15 15 14 13 13 14 14 13 10 8 6 15 12 11 9 9 8 6 6 4 4 5 7 8 10 12 14 16 17 17 18 18
35 30 22 22 22 20 18 18 19 18 17 17 16 15 15 13 13 13 11 11 11 11 15 17 13 9 8 7 7 6 5 4 2 3 8 10 10 12 14 15 16 16 17
23 29 30 24 25 23 21 19 17 18 17 18 18 19 15 14 13 12 12 13 11 12 13 16 13 9 8 7 7 5 4 2 1 2 6 7 9 11 13 14 16 16 16
30 28 31 29 26 23 23 23 21 21 18 19 21 20 19 18 17 16 15 16 13 13 14 13 13 10 7 6 6 4 4 3 2 1 1 3 5 7 10 12 15 15 15
31 33 31 28 26 24 21 18 18 20 20 19 18 17 15 15 16 14 13 13 19 15 13 13 11 10 8 7 5 3 2 4 1 1 1 2 1 2 5 9 11 14 14
25 25 24 24 20 17 21 19 17 16 15 16 16 15 15 16 18 19 19 16 13 12 12 11 11 9 7 6 5 4 1 4 5 2 1 0 2 1 3 5 9 11 13
29 25 23 23 21 17 22 21 20 17 15 15 16 18 16 15 17 18 18 16 17 17 13 10 12 9 9 5 4 4 2 3 3 1 2 2 2 1 2 2 7 10 12
28 27 24 22 20 16 23 22 21 18 18 17 17 16 16 18 16 19 17 17 16 13 11 11 11 10 8 5 2 1 1 1 2 1 5 2 2 4 4 3 9 11 10
26 25 24 23 21 21 23 26 24 20 19 18 17 15 16 16 19 18 17 16 15 14 13 16 13 9 7 5 5 1 1 2 3 1 5 4 3 7 4 4 5 11 8
26 25 23 21 20 23 24 29 24 21 23 21 17 15 16 17 22 20 14 16 16 14 12 11 9 7 6 6 6 7 3 1 1 4 2 5 5 7 4 2 6 9 8
Wind_Direction
171 167 168 168 165 155 151 147 141 136 128 116 114 113 113 116 117 110 86 77 80 71 67 66 64 59 55 53 52 49 46 47 45 41 34 28 24 17 15 10 1 6 11
179 179 186 181 166 154 163 160 153 141 132 124 113 113 113 112 112 109 102 81 79 77 71 68 66 61 62 58 60 58 57 53 48 44 38 29 26 21 16 12 7 7 5
197 195 189 177 170 170 156 158 146 134 126 126 116 113 109 105 104 105 104 93 80 83 76 69 67 64 62 60 62 60 58 55 52 46 40 35 31 26 20 15 13 10 11
194 190 182 169 171 163 160 159 149 140 134 129 123 123 111 107 101 97 99 101 100 87 75 72 67 62 57 54 55 56 53 50 45 41 38 34 30 28 24 20 17 11 6
189 183 176 174 166 159 163 160 157 152 142 132 126 120 108 107 100 98 93 91 93 97 90 77 72 63 60 55 52 51 52 49 47 42 37 33 29 27 23 23 22 17 13
183 183 180 173 170 162 161 168 164 154 148 139 130 110 107 103 101 98 94 91 87 88 94 95 74 65 61 57 54 51 51 50 47 44 40 36 33 30 26 23 20 19 17
182 182 180 173 171 171 165 162 160 156 150 143 125 110 105 101 99 98 100 96 90 88 85 84 85 74 57 55 54 53 52 51 49 46 43 39 36 32 30 27 23 21 17
183 180 179 178 177 172 170 166 163 167 166 164 151 140 150 125 100 94 96 97 101 100 92 89 85 81 69 61 53 51 53 52 49 47 44 41 38 36 33 29 27 23 20
183 179 176 179 179 173 178 175 171 178 170 182 184 243 174 153 146 103 100 104 111 110 105 93 84 80 77 66 53 44 48 49 48 46 44 42 40 37 35 32 30 28 26
179 179 178 180 177 181 180 184 183 183 181 183 186 222 336 130 176 151 154 134 123 117 115 112 103 91 83 77 64 56 54 51 51 48 46 44 41 37 35 34 31 32 30
184 183 181 176 181 180 184 189 191 193 193 187 191 176 154 139 152 161 151 174 152 131 120 122 121 110 93 90 68 60 58 54 52 50 47 45 42 40 37 33 32 31 30
181 182 175 178 177 182 181 188 189 189 189 191 193 195 185 182 185 172 145 167 156 147 131 121 127 121 110 87 83 71 64 57 53 49 45 43 42 41 38 34 30 29 26
181 180 176 172 178 177 178 181 187 187 189 193 192 195 201 201 186 187 151 157 157 163 163 139 128 124 114 102 95 76 66 56 54 52 48 44 43 43 41 38 33 33 31
178 176 176 164 171 168 169 171 176 179 186 185 181 185 186 187 178 181 176 166 152 163 172 152 129 124 114 111 108 87 56 62 58 55 51 48 47 45 43 38 34 33 33
175 173 166 160 170 167 167 165 166 166 166 165 167 166 173 173 174 178 178 176 177 167 160 174 151 143 127 108 119 103 88 78 66 58 54 50 49 45 42 39 34 31 32
167 167 163 154 162 171 164 159 158 156 152 154 152 157 154 154 156 159 168 175 197 171 131 153 144 142 135 121 122 116 129 76 63 64 56 54 53 48 43 39 34 32 29
161 160 156 154 158 172 164 156 153 150 149 150 148 147 148 153 154 156 161 156 141 141 133 130 141 139 133 133 129 138 125 126 42 72 67 58 55 49 43 37 34 31 30
166 162 159 157 167 167 162 154 147 148 147 148 144 146 149 152 150 151 148 141 136 132 140 142 147 143 142 140 141 148 133 107 105 74 79 68 59 49 42 36 31 31 30
160 161 163 166 167 159 159 154 150 144 149 150 150 156 150 152 148 141 140 136 128 125 135 143 142 145 139 139 156 164 162 130 141 56 67 76 63 54 43 36 30 32 30
175 173 165 171 165 158 159 155 148 150 156 159 162 162 158 156 149 143 144 135 128 131 133 137 141 143 145 135 136 164 158 156 188 180 89 60 64 47 43 37 29 29 29
170 175 169 168 161 161 156 151 150 153 153 155 157 154 144 146 138 135 135 134 133 127 136 138 134 140 135 138 144 123 159 200 241 64 133 56 19 30 22 23 26 26 26
162 164 159 156 150 151 159 150 145 146 152 152 141 134 132 144 148 142 140 141 132 136 144 141 142 138 134 131 124 124 147 224 223 273 202 281 46 28 19 29 28 27 25
160 157 153 154 152 157 162 159 145 150 153 147 144 141 142 148 131 127 132 129 129 134 128 134 133 135 133 140 135 139 151 241 256 232 300 196 19 310 322 350 20 24 20
155 151 154 155 150 154 164 162 148 150 146 146 149 152 153 148 144 134 128 122 113 106 104 113 118 117 117 118 113 137 178 248 199 185 349 265 347 335 291 286 319 351 359
152 151 152 153 151 154 172 163 146 149 146 145 148 153 155 150 152 140 139 133 125 113 128 131 124 120 116 113 101 125 129 257 218 245 355 335 334 326 298 258 296 329 348
152 153 154 161 157 156 165 159 157 155 153 150 153 153 158 159 158 141 147 148 139 142 132 118 105 93 84 81 90 76 53 359 309 225 37 336 335 348 311 255 301 315 323